Location: Budapest
(47.4979°N, 19.0402°E)
Time: 17:21:51
(UTC+01:00)

ISS - Visible Passes

Search period start: 15 February 2026 00:00
Search period end: 25 February 2026 00:00
Orbit: 413 x 428 km, 51.6° (Epoch: 14 February)

Date Brightness Start Highest point End Pass type
(mag) Time Alt. Az. Time Alt. Az. Time Alt. Az.
15 Feb -3.1 05:36:21 12° SW 05:39:18 53° SSE 05:42:35 10° ENE visible
16 Feb -2.5 04:51:33 30° S 04:52:18 35° SE 04:55:24 10° ENE visible
17 Feb -1.1 04:06:35 19° ESE 04:06:35 19° ESE 04:08:04 10° E visible
17 Feb -3.8 05:39:35 18° WSW 05:41:55 74° NNW 05:45:16 10° ENE visible
18 Feb -3.9 04:54:30 70° SW 04:54:47 80° SSE 04:58:09 10° ENE visible
19 Feb -1.5 04:09:20 26° E 04:09:20 26° E 04:11:00 10° ENE visible
19 Feb -3.2 05:42:19 17° W 05:44:37 46° NNW 05:47:51 10° ENE visible
20 Feb -3.6 04:57:04 53° NW 04:57:24 56° NNW 05:00:42 10° ENE visible
21 Feb -1.8 04:11:45 29° ENE 04:11:45 29° ENE 04:13:33 10° ENE visible
21 Feb -2.9 05:44:44 14° WNW 05:47:20 38° N 05:50:30 10° ENE visible
22 Feb -3.0 04:59:22 35° NW 05:00:03 40° N 05:03:15 10° ENE visible
23 Feb -2.0 04:13:59 30° NE 04:13:59 30° NE 04:16:01 10° ENE visible
23 Feb -2.9 05:46:57 11° WNW 05:50:00 42° N 05:53:12 10° E visible
24 Feb -0.3 03:28:34 11° ENE 03:28:34 11° ENE 03:28:47 10° ENE visible
24 Feb -2.8 05:01:33 29° NW 05:02:41 39° N 05:05:52 10° ENE visible
